Regional Weather Roundup
Issued by NWS

Home | Current Version | Previous Version | Graphics & Text | Print | Product List | Glossary On
Versions: 1 2 3 4 5 6 7 8 9 10 11 12 13 14 15 16 17 18 19 20 21 22 23 24 25 26 27 28 29 30 31 32 33 34 35 36 37 38 39 40 41 42 43 44 45 46 47 48 49 50
000
ASUS45 KBOU 261307
RWRCO

WEATHER ROUNDUP FOR COLORADO
NATIONAL WEATHER SERVICE DENVER/BOULDER CO
700 AM MDT SUN APR 26 2015

NOTE: "FAIR" INDICATES FEW OR NO CLOUDS BELOW 12000 FEET WITH NO
SIGNIFICANT WEATHER AND/OR OBSTRUCTIONS TO VISIBILITY.

COZ001>005-013-030-031-261400-
...NORTHWEST COLORADO...

CITY           SKY/WX    TMP DP  RH WIND       PRES   REMARKS
CRAIG          CLEAR     35  32  88 CALM      29.76R
HAYDEN         PTCLDY    37  32  81 SE6       29.76R
MEEKER         CLOUDY    37  34  89 CALM      29.75R
MOUNT WERNER   NOT AVBL
STEAMBOAT SPGS MOCLDY    37  36  96 E5        29.78R
WALDEN         CLOUDY    34  32  93 N3        29.82F
$$

COZ006>008-011-261400-
...WEST CENTRAL VALLEYS...

CITY           SKY/WX    TMP DP  RH WIND       PRES   REMARKS
GRAND JUNCTION RAIN      42  41  96 NW8       29.74R FOG
MONTROSE       CLOUDY    41  38  89 S3        29.75R
EAGLE          CLOUDY    39  39 100 CALM      29.81R
RIFLE          MOCLDY    37  35  92 E3        29.74R
DELTA          NOT AVBL
NUCLA          DRIZZLE   37  36  93 E8        29.80R
$$

COZ017>023-064>068-261400-
...SOUTHWEST COLORADO...

CITY           SKY/WX    TMP DP  RH WIND       PRES   REMARKS
DURANGO        LGT RAIN  38  38 100 CALM      29.77S FOG
CORTEZ           N/A     38  35  89 CALM      29.78R
PAGOSA SPRINGS LGT SNOW  34  34 100 CALM      29.81R
TELLURIDE      FOG       32  32 100 W3        29.80R VSB<1/4
WOLF CREEK PAS NOT AVBL
$$

COZ009-010-012-014-032>034-037-058>063-261400-
...CENTRAL COLORADO...

CITY           SKY/WX    TMP DP  RH WIND       PRES   REMARKS
ASPEN          MOCLDY    34  33  96 CALM      29.76S FOG
BUENA VISTA    CLOUDY    35  31  88 CALM      29.82R
COPPER MTN     CLOUDY    30  23  74 E14       29.89S WCI  20
BERTHOUD PASS  HVY SNOW  23  14  68 E18       29.93S VSB<1/4 WCI   9
COTTONWOOD PAS CLOUDY    36  30  80 E3        29.85S
GUNNISON       MOCLDY    36  28  75 NW8       29.79R
KREMMLING      CLOUDY    36  34  93 CALM      29.83R
LEADVILLE      MOCLDY    27  26  96 CALM      29.83R
MONARCH PASS   FOG       25  23  93 MISG      29.99S VSB<1/4
SALIDA         CLOUDY    41  34  75 CALM      29.88R
SUNLIGHT       CLOUDY    32  30  93 E6        29.86R FOG     WCI  26
WILKERSON PASS SNOW      28  28 100 NE6       29.93S VSB<1/4 WCI  22
$$

COZ069>075-261400-
...SAN LUIS VALLEY/SANGRE DE CRISTO MOUNTAINS...

CITY           SKY/WX    TMP DP  RH WIND       PRES   REMARKS
ALAMOSA        MOCLDY    38  30  73 SE6       29.79S
LA VETA PASS   CLOUDY    32  27  80 CALM      29.87S
SAGUACHE       CLOUDY    34  28  80 W3        29.82R
$$

COZ035-036-038>040-261400-
...NORTHERN COLORADO FRONT RANGE...

CITY           SKY/WX    TMP DP  RH WIND       PRES   REMARKS
DENVER INTL AP LGT RAIN  41  40  96 E17       29.82R
DMNS CITY PARK   N/A     43  40  89 E13       29.83R
AURORA         LGT RAIN  41  41 100 E16       29.83R
FRONT RANGE AP CLOUDY    43  41  93 NE17G28   29.83R
ERIE MUNI ARPT CLOUDY    44  41  89 CALM      29.84R
BOULDER MUN AP RAIN      43  43 100 CALM      29.84R
CENTENNIAL     CLOUDY    40  39  97 E7        29.82R
BROOMFIELD     LGT RAIN  43  41  93 E9        29.84R
FORT COLLINS   CLOUDY    45  41  87 SE9       29.85R
LONGMONT       DRIZZLE   46  43  91 CALM      29.86R
$$

COZ041-046-047-076>085-087-088-261400-
...PIKES PEAK/PALMER DIVIDE AND SOUTHERN FOOTHILLS...

CITY           SKY/WX    TMP DP  RH WIND       PRES   REMARKS
COLO. SPRINGS  LGT RAIN  46  44  93 E15       29.81R FOG
A. F. ACADEMY  CLOUDY    45  45  99 SE8       29.81R
ELLICOTT       CLOUDY   N/A N/A N/A SE15      29.80R
FALCON         DRIZZLE   43  43 100 SE16G23   29.83S
FORT CARSON    CLOUDY    47  45  93 E13       29.79R
LIMON          CLOUDY    43  42  97 E16       29.83R
MONUMENT HILL  LGT RAIN  34  34 100 NE5       29.84R VSB 3/4 WCI  30
TRINIDAD       CLOUDY    43  28  55 W6        29.75R
$$

COZ042>045-048>051-090-091-261400-
...NORTHEAST COLORADO...

CITY           SKY/WX    TMP DP  RH WIND       PRES   REMARKS
GREELEY ARPT   CLOUDY    45  39  81 E21       29.84R
AKRON          FOG       42  42 100 E15       29.84R VSB<1/4
BURLINGTON     FOG       43  42  97 E14       29.85S VSB 1/2
WRAY           CLOUDY   N/A N/A N/A E12       29.89R FOG
STERLING       CLOUDY    45  45 100 SE10G18   29.85R
HOLYOKE        CLOUDY    45  43  93 E14       29.89S FOG
FORT MORGAN    TSTM      43  42  95 E3        29.87R
$$

COZ086-089-092>099-261400-
...SOUTHEAST COLORADO...

CITY           SKY/WX    TMP DP  RH WIND       PRES   REMARKS
PUEBLO         CLOUDY    51  46  83 E20       29.76R
LA JUNTA       CLOUDY    49  46  90 E25G32    29.75R
LAMAR          CLOUDY    47  46  97 E18       29.78R FOG
SPRINGFIELD      N/A     50  48  93 E15       29.76R
$$


USA.gov is the U.S. government's official web portal to all federal, state and local government web resources and services.